This is the latest recevied weather packets stored in our database for station/object KN6KS. If no packets are shown the sender has not sent any weather packets the latest 10 day(s).
| Time | Temp. | Humidity | Pressure | Rain* | Wind** | Luminosity | Snow |
|---|---|---|---|---|---|---|---|
| 1778012646 | 16.67° C | 53% | 1012.2 hPa | 0 mm | - | 296 W/m² | - |
| 1778012344 | 16.11° C | 52% | 1012.4 hPa | 0 mm | - | 291 W/m² | - |
| 1778012041 | 16.11° C | 50% | 1012.5 hPa | 0 mm | - | 451 W/m² | - |
| 1778011739 | 16.11° C | 52% | 1012.1 hPa | 0 mm | - | 296 W/m² | - |
| 1778011435 | 15.56° C | 51% | 1012.4 hPa | 0 mm | - | 237 W/m² | - |
| 1778011131 | 16.11° C | 51% | 1012.5 hPa | 0 mm | - | 287 W/m² | - |
| 1778010828 | 15.56° C | 53% | 1012.8 hPa | 0 mm | - | 918 W/m² | - |
| 1778010525 | 15.56° C | 53% | 1012.5 hPa | 0 mm | - | 287 W/m² | - |
| 1778010223 | 15° C | 55% | 1012.4 hPa | 0 mm | - | 254 W/m² | - |
| 1778009918 | 15.56° C | 53% | 1012.5 hPa | 0 mm | - | 209 W/m² | - |
| 1778009616 | 15.56° C | 50% | 1012.5 hPa | 0 mm | - | 251 W/m² | - |
| 1778009313 | 15.56° C | 51% | 1012.7 hPa | 0 mm | - | 278 W/m² | - |
| 1778009012 | 15.56° C | 52% | 1012.5 hPa | 0 mm | - | 337 W/m² | - |
| 1778008709 | 15.56° C | 51% | 1012.5 hPa | 0 mm | - | 654 W/m² | - |
| 1778008408 | 15.56° C | 51% | 1012.8 hPa | 0 mm | - | 406 W/m² | - |
| 1778008103 | 15° C | 51% | 1012.8 hPa | 0 mm | - | 272 W/m² | - |
| 1778007799 | 15° C | 52% | 1012.7 hPa | 0 mm | - | 219 W/m² | - |
| 1778007495 | 15° C | 52% | 1012.5 hPa | 0 mm | - | 276 W/m² | - |
| 1778007192 | 15.56° C | 53% | 1012.7 hPa | 0 mm | - | 276 W/m² | - |
| 1778006888 | 15° C | 53% | 1012.8 hPa | 0 mm | - | 248 W/m² | - |
| 1778006585 | 15.56° C | 52% | 1012.7 hPa | 0 mm | - | 239 W/m² | - |
| 1778006282 | 15° C | 53% | 1012.5 hPa | 0 mm | - | 276 W/m² | - |
| 1778005979 | 15° C | 53% | 1012.2 hPa | 0 mm | - | 310 W/m² | - |
| 1778005676 | 15° C | 53% | 1012.4 hPa | 0 mm | - | 846 W/m² | - |
| 1778005372 | 15° C | 54% | 1012.5 hPa | 0 mm | - | 909 W/m² | - |
* Rain latest hour (hover to see other rain measurements)
** Current wind speed in m/s (hover to see current wind gust speed)